Wind_Speed
44 49 53 60 66 63 53 44 40 40 43 42 41 33 30 32 23 16 11 11 16 16 16 23 21 22 15 9 3 6 5 8 13 7 29 68 57 47 45 44 58 68 63 63 57 48 61 61 51 47 41 38 30 24
42 47 52 57 64 64 56 46 39 39 44 43 40 33 33 29 25 12 12 7 8 12 15 18 21 21 25 22 12 3 6 9 6 4 30 57 54 41 40 32 58 66 69 71 63 49 57 53 60 54 41 37 43 33
40 44 50 54 61 63 57 48 40 39 43 43 39 31 31 29 23 13 15 12 7 7 9 13 14 18 17 16 16 16 10 8 8 13 15 49 37 51 41 37 57 57 72 70 67 53 54 55 61 56 50 42 44 35
38 41 47 51 58 62 58 50 42 38 42 41 35 27 29 26 25 15 15 15 14 9 6 11 14 15 15 13 11 9 11 16 6 7 20 36 32 59 38 51 41 46 71 72 73 60 52 59 60 56 46 45 47 43
36 39 43 48 54 60 58 52 43 37 42 38 31 25 26 25 24 22 22 19 16 18 15 15 16 17 10 12 11 10 8 9 8 3 6 19 18 31 61 47 41 51 69 74 74 62 53 59 63 57 51 56 57 52
35 36 40 45 49 56 59 52 45 36 40 37 32 27 22 21 21 21 23 19 17 18 17 15 18 16 14 12 12 11 5 4 1 2 3 7 10 24 42 57 45 42 65 68 76 73 62 61 66 57 55 54 55 50
34 34 38 42 46 51 57 52 46 36 36 35 29 26 21 22 23 23 24 22 20 21 19 16 17 19 19 21 17 12 6 2 4 6 10 12 13 13 17 41 45 43 51 70 70 77 67 71 69 66 61 60 59 51
35 34 35 38 43 46 52 54 48 37 31 33 26 25 22 22 25 25 24 24 24 24 23 20 19 18 19 19 19 15 9 5 3 4 12 17 16 16 22 33 63 61 46 54 64 77 76 69 68 70 56 62 56 56
36 34 34 36 39 42 46 51 50 42 29 29 26 22 21 21 23 24 23 24 24 24 24 25 25 27 22 19 19 15 9 11 9 7 3 5 16 27 30 29 53 68 59 47 54 76 77 76 70 72 66 66 55 55
36 34 33 34 36 39 41 46 49 45 35 27 26 22 19 20 22 22 19 21 22 24 23 29 30 30 23 18 17 17 10 11 9 6 4 3 7 10 15 24 30 44 68 56 58 63 74 83 69 74 61 56 55 54
36 35 34 32 34 36 37 40 45 43 40 29 23 20 17 15 15 13 16 21 27 31 30 29 28 25 18 16 21 17 16 18 16 12 11 12 15 17 13 13 25 34 57 73 52 51 80 79 80 76 68 63 63 62
35 35 35 33 32 33 34 36 38 43 41 34 24 20 18 14 10 12 16 19 26 30 27 30 30 26 19 20 19 21 21 21 19 17 15 17 22 20 15 14 13 24 59 80 63 52 54 66 87 84 79 71 68 71
35 36 38 35 33 32 33 33 35 37 39 38 29 19 16 17 12 12 11 14 16 25 27 28 26 24 20 17 16 16 18 21 22 25 23 22 24 19 6 9 10 36 44 67 80 68 55 54 63 88 84 75 59 62
34 36 37 36 34 33 32 31 33 33 35 36 33 26 18 16 16 13 12 9 10 15 21 23 25 21 17 16 15 14 17 17 20 23 24 24 23 21 14 8 10 12 26 47 64 76 72 60 61 64 67 78 66 57
39 37 38 36 35 34 34 31 30 32 31 32 33 29 24 17 11 13 10 8 6 8 11 14 15 20 17 11 13 14 15 17 18 21 20 23 21 20 13 10 9 6 14 22 43 64 72 78 70 61 60 66 60 59
36 33 33 33 35 35 34 33 29 28 30 29 30 29 26 22 18 13 13 11 8 7 7 8 10 10 13 15 17 18 13 13 15 19 18 17 20 21 23 23 12 9 10 13 18 27 44 62 86 82 72 71 65 57
33 29 31 32 35 37 37 35 30 28 28 29 29 27 24 21 20 17 14 12 10 11 11 11 9 12 11 11 11 11 14 17 13 14 16 19 18 18 24 25 25 18 11 15 9 9 20 36 50 76 82 76 76 73
33 30 31 32 34 34 36 36 33 30 28 25 27 27 26 24 19 18 16 16 13 12 13 14 10 12 12 12 10 10 11 13 14 14 15 17 20 22 22 24 29 23 12 4 8 16 20 15 26 50 75 87 89 80
37 36 37 38 37 36 36 34 34 29 29 25 26 26 23 24 22 18 18 17 16 17 14 17 16 16 15 15 15 13 12 12 14 13 12 13 18 18 21 23 21 18 16 7 6 0 6 10 12 26 58 73 78 90
37 38 40 40 39 38 37 37 39 34 25 26 28 27 25 23 23 22 20 19 18 17 19 19 18 16 16 14 15 16 15 15 17 16 15 13 13 13 16 18 21 21 18 12 11 9 7 14 6 5 22 41 58 75
37 37 40 39 39 40 38 39 40 38 34 28 30 29 28 27 25 24 21 20 20 21 21 22 20 16 14 17 21 22 18 19 21 22 20 20 15 14 12 14 18 20 18 14 5 11 9 10 9 9 4 16 26 48
38 37 38 41 39 37 35 39 40 42 40 35 33 29 28 30 29 28 26 19 19 23 22 21 23 14 17 17 18 23 28 24 23 24 23 25 19 17 16 15 12 14 16 16 16 3 7 3 11 8 8 10 15 25
40 38 35 37 40 38 35 37 39 41 41 37 37 36 34 35 34 33 28 23 22 21 22 22 24 19 16 17 18 20 23 26 26 26 23 26 25 23 21 18 16 12 13 13 13 10 9 5 11 9 5 14 12 20
42 39 35 37 35 36 36 37 39 40 42 43 41 46 45 39 35 33 28 27 27 26 24 24 23 20 17 22 23 24 22 22 23 23 20 21 21 25 25 23 21 19 15 13 10 9 4 7 3 19 20 13 19 19
41 37 34 34 37 40 40 38 40 43 42 46 54 42 35 33 32 29 26 27 33 30 25 25 26 25 22 22 23 23 24 25 24 28 28 23 25 19 23 24 20 18 20 18 14 12 10 6 7 4 2 13 21 24
36 35 32 33 39 42 44 44 45 44 47 52 41 35 34 35 34 31 27 32 32 30 28 27 27 26 25 22 23 30 32 29 27 28 28 28 27 31 32 31 32 27 22 22 20 19 17 13 12 9 10 7 7 20
32 31 31 36 43 44 44 45 44 49 53 41 35 37 40 37 35 33 33 30 32 31 30 29 25 25 26 27 26 26 27 29 27 25 28 29 29 28 32 34 32 30 28 25 21 21 23 23 20 19 18 17 16 13
27 28 34 40 42 46 46 44 50 47 38 39 43 42 41 40 37 38 35 35 33 28 24 24 24 24 24 24 23 26 28 28 28 27 26 27 30 31 30 29 27 27 25 27 28 27 23 23 26 26 27 27 25 24
29 34 40 42 43 44 45 41 38 39 43 40 39 39 40 37 38 36 34 37 34 29 28 29 29 30 30 31 30 29 30 28 28 29 29 30 29 30 32 34 31 27 24 23 21 21 23 24 24 25 27 28 29 29
34 40 42 42 42 38 39 43 39 39 40 40 38 36 35 33 33 35 36 33 29 29 34 30 29 32 35 33 30 30 29 28 26 26 26 28 30 31 32 33 31 31 29 27 27 26 25 23 20 19 21 24 27 28
41 44 43 36 36 40 39 39 42 45 42 39 35 32 31 31 33 36 31 29 30 28 33 39 42 37 27 23 26 27 28 28 26 24 25 28 32 34 33 33 33 34 34 32 31 29 27 27 26 25 24 23 23 24
39 33 34 35 34 40 44 43 42 39 36 33 30 30 31 32 33 37 34 32 31 29 28 27 27 26 29 32 33 39 37 35 34 34 33 29 32 35 35 33 35 37 37 36 35 36 38 38 38 37 35 34 32 30
31 32 36 40 40 38 39 39 36 34 34 32 29 28 28 30 34 32 28 26 27 32 40 37 34 35 36 42 41 37 41 44 44 44 38 32 32 34 37 41 43 43 44 44 43 43 42 39 39 38 37 37 38 39
Wind_Direction
346 348 350 349 352 356 356 355 355 354 355 354 353 352 351 349 350 345 9 25 26 31 37 40 46 32 32 47 206 248 247 212 212 265 216 208 201 180 174 167 189 192 195 194 204 196 202 202 206 202 209 215 209 221
345 348 350 350 351 356 358 358 357 357 356 354 355 355 357 359 356 360 10 35 17 28 34 33 36 32 36 43 53 13 262 155 106 196 213 209 217 190 181 164 185 191 194 195 200 195 199 200 201 202 210 203 207 208
344 347 350 350 351 356 359 360 360 1 359 356 359 0 2 7 14 25 18 23 17 14 22 16 3 1 1 14 33 40 37 327 278 198 201 214 224 218 221 208 173 180 193 196 199 196 198 198 198 202 202 210 213 215
343 346 349 350 351 355 359 2 2 4 3 2 4 11 12 16 20 28 21 20 18 359 337 348 354 359 2 354 7 5 14 8 320 245 223 224 243 223 218 183 177 168 182 195 198 199 197 202 197 200 208 209 215 216
342 344 348 351 350 354 359 3 4 5 5 7 9 10 19 22 22 40 39 33 42 44 47 40 21 1 360 359 1 338 314 341 15 200 182 227 241 238 222 215 199 171 177 188 194 194 191 195 199 197 203 212 219 221
341 343 345 350 351 353 358 2 5 6 7 7 10 12 12 21 28 26 30 38 42 36 35 22 11 35 43 26 9 3 301 240 242 5 218 260 272 253 240 230 215 181 188 186 195 193 193 196 200 199 204 206 215 216
338 341 343 348 351 352 355 2 5 7 8 10 14 21 24 35 43 43 43 41 39 38 34 35 27 16 11 13 11 2 5 268 248 241 259 271 282 297 289 239 234 200 183 189 191 193 195 199 201 203 212 214 213 218
334 338 340 343 349 352 353 358 5 8 8 15 21 32 41 43 33 39 46 48 49 44 38 32 24 16 7 11 7 5 1 21 336 273 271 277 285 284 274 252 220 203 208 188 181 193 197 196 203 207 207 212 212 216
333 333 338 340 345 350 352 354 1 6 8 15 19 31 41 37 33 44 44 38 33 28 21 15 14 9 5 358 7 19 55 42 48 40 72 268 263 268 271 268 247 230 231 222 188 188 200 202 202 204 206 201 205 210
329 330 333 337 340 346 351 352 358 2 6 10 15 15 20 21 27 34 35 33 27 20 19 16 15 5 8 23 36 38 63 63 62 51 40 4 331 309 280 269 260 253 239 222 195 191 197 199 203 206 207 205 206 215
325 330 332 334 336 338 347 350 353 360 4 4 7 12 16 9 4 8 31 25 19 26 28 25 20 9 14 44 44 49 59 58 57 51 43 38 10 345 324 272 258 254 243 234 231 197 193 200 205 209 213 212 213 215
323 327 328 332 333 334 339 347 349 353 360 3 1 1 12 4 352 15 31 35 39 34 34 39 33 38 57 66 67 66 61 61 57 52 48 26 355 340 306 281 262 251 240 237 230 217 199 206 207 210 214 213 217 220
318 326 327 326 333 331 334 340 345 349 353 358 2 360 354 360 7 13 28 36 43 36 44 47 44 53 59 58 50 55 57 61 57 36 31 26 14 11 318 297 281 236 243 240 239 224 211 199 206 212 210 216 216 207
315 321 322 323 325 331 329 334 337 341 346 352 357 359 348 357 3 2 1 25 27 51 47 46 50 55 47 36 37 35 45 49 50 37 28 20 13 9 2 334 279 287 248 241 237 233 231 220 201 208 215 217 223 223
309 309 318 318 322 328 329 328 329 335 338 344 349 355 353 349 346 356 343 348 357 17 16 20 32 41 38 29 28 21 23 34 34 19 11 3 2 360 348 304 285 295 269 252 237 234 230 228 224 223 213 210 215 219
310 313 318 323 323 323 327 327 326 327 332 334 341 347 349 346 338 334 339 330 323 304 328 360 2 15 28 26 26 29 21 7 6 14 4 3 4 4 8 1 343 288 266 255 254 247 237 238 232 228 223 212 214 216
307 309 319 324 325 325 326 323 325 323 323 328 330 337 343 342 336 326 321 324 309 299 295 300 300 316 336 351 8 22 21 16 16 8 15 12 10 7 10 15 4 1 289 255 241 249 247 229 228 230 224 223 225 219
306 308 315 327 326 324 325 323 323 325 317 322 323 323 332 339 332 325 320 314 312 305 295 294 293 294 300 305 306 314 334 335 354 3 3 359 2 12 4 11 16 12 21 308 262 242 255 258 236 229 222 218 223 224
295 303 307 312 321 323 323 323 320 323 315 313 317 317 319 324 328 321 319 314 310 304 295 289 293 294 295 286 283 285 290 295 306 319 336 345 354 355 360 0 8 20 13 11 52 131 309 287 247 224 221 221 223 223
289 299 306 308 309 313 320 318 319 324 320 318 312 317 313 313 319 322 314 313 305 302 302 296 293 292 285 282 278 281 287 296 295 291 295 307 324 339 348 348 359 3 8 356 346 339 301 337 320 264 221 220 226 227
286 293 298 304 308 309 314 315 318 319 317 315 308 308 315 311 306 308 309 313 304 298 297 300 303 297 281 273 272 277 267 273 281 289 288 285 285 296 316 331 347 355 4 8 326 278 292 342 316 327 271 186 200 219
282 286 291 298 305 311 316 310 313 311 315 320 316 312 312 313 307 299 301 306 298 297 299 295 293 286 287 289 277 257 262 267 270 273 288 284 274 278 288 298 316 331 341 4 25 298 250 239 175 250 177 199 178 205
279 280 288 290 299 306 312 312 310 308 308 314 312 312 314 311 307 298 296 294 293 292 286 286 289 287 285 290 299 293 274 271 267 262 275 273 281 283 279 276 279 295 313 331 355 32 28 224 237 212 237 168 180 178
276 278 282 288 297 300 302 306 310 313 314 310 314 317 314 309 303 300 300 291 287 284 287 289 285 272 274 283 282 287 289 275 271 267 277 290 289 287 280 277 275 274 279 287 308 320 1 6 154 217 249 265 248 234
277 278 279 287 295 297 298 305 305 306 311 312 315 315 310 301 300 298 298 282 280 284 284 281 282 281 279 279 271 276 284 278 273 268 270 277 277 279 285 293 286 279 272 270 268 280 289 300 100 359 326 221 227 228
278 280 279 287 292 293 294 300 301 303 309 309 309 302 302 302 299 302 294 281 285 280 275 271 271 274 277 276 268 271 278 279 274 269 270 266 259 264 275 285 289 287 288 276 264 257 263 263 259 230 235 214 217 207
278 286 288 288 286 290 294 296 299 303 308 305 304 301 300 299 298 299 293 295 292 285 278 271 270 272 271 271 272 274 274 275 276 274 271 267 264 269 273 274 276 281 277 275 275 261 248 249 250 249 251 250 249 245
282 285 285 280 286 291 297 299 298 301 300 304 304 303 302 303 299 295 296 294 295 280 262 260 265 271 271 273 282 285 282 278 276 270 265 263 262 259 261 267 272 279 280 267 266 269 263 253 249 249 245 245 246 244
278 279 279 281 284 293 297 295 300 297 296 299 298 296 296 289 288 293 294 295 292 285 284 272 262 267 271 274 278 287 286 285 279 274 269 262 260 260 260 261 260 264 269 270 261 255 257 257 255 251 250 250 249 249
269 271 274 281 287 287 292 297 296 296 298 298 295 290 288 288 289 287 287 286 276 281 284 276 283 288 284 279 278 281 281 281 279 274 270 264 262 261 259 257 255 252 255 259 264 256 255 257 253 255 256 255 254 254
264 271 281 281 286 289 291 293 294 296 296 296 294 291 286 280 279 280 279 269 263 264 263 271 276 285 279 279 286 284 285 282 283 282 271 263 261 262 261 260 259 257 254 250 244 238 244 253 257 260 262 260 264 266
268 269 277 286 284 287 292 292 293 294 293 293 291 284 279 276 272 277 277 271 273 277 292 279 275 279 277 281 292 294 292 290 289 287 284 272 259 257 261 261 262 263 262 260 258 256 255 257 260 262 263 262 263 265
270 276 281 287 289 287 290 293 295 293 293 293 290 283 278 273 272 275 272 269 265 271 272 271 264 264 274 283 281 273 273 282 286 287 283 286 277 267 259 257 256 255 257 260 262 263 265 263 260 259 259 258 259 259
Height
5686 5676 5665 5653 5640 5626 5613 5603 5594 5586 5578 5568 5559 5550 5544 5537 5531 5528 5526 5525 5523 5519 5517 5513 5509 5506 5502 5500 5499 5501 5503 5503 5507 5510 5515 5522 5528 5538 5549 5555 5567 5578 5592 5604 5611 5623 5631 5641 5653 5662 5664 5671 5680 5689
5684 5674 5664 5652 5639 5626 5613 5602 5593 5586 5578 5568 5558 5551 5544 5537 5531 5527 5526 5525 5524 5522 5520 5516 5513 5510 5507 5503 5502 5503 5503 5503 5506 5509 5512 5519 5525 5533 5541 5544 5556 5573 5581 5591 5602 5612 5620 5631 5643 5653 5658 5665 5670 5676
5682 5672 5663 5652 5639 5626 5614 5602 5593 5585 5578 5568 5559 5552 5545 5539 5533 5529 5528 5526 5525 5523 5521 5518 5516 5514 5511 5509 5507 5506 5506 5505 5505 5505 5509 5513 5514 5519 5528 5534 5540 5556 5569 5584 5598 5603 5612 5622 5633 5644 5653 5658 5665 5671
5680 5671 5662 5651 5640 5627 5615 5603 5593 5586 5578 5569 5560 5554 5548 5543 5537 5533 5531 5529 5526 5523 5522 5521 5518 5515 5512 5509 5508 5507 5506 5504 5503 5503 5503 5507 5512 5518 5519 5525 5532 5540 5558 5575 5587 5597 5606 5617 5627 5638 5646 5653 5657 5663
5677 5669 5660 5650 5640 5628 5616 5605 5595 5587 5579 5571 5564 5558 5552 5546 5542 5538 5534 5531 5528 5527 5524 5522 5519 5516 5514 5512 5509 5508 5506 5506 5505 5504 5505 5509 5508 5512 5517 5526 5531 5535 5549 5564 5577 5588 5599 5609 5621 5630 5638 5646 5652 5658
5674 5667 5659 5650 5640 5629 5618 5607 5596 5588 5581 5574 5567 5560 5555 5550 5546 5542 5537 5535 5533 5530 5527 5524 5522 5518 5515 5512 5509 5506 5504 5505 5505 5507 5508 5508 5506 5508 5513 5525 5534 5534 5545 5550 5563 5576 5590 5602 5613 5622 5629 5639 5646 5651
5672 5665 5658 5649 5640 5630 5620 5609 5599 5590 5584 5576 5570 5564 5560 5555 5550 5546 5542 5539 5535 5532 5529 5527 5525 5522 5518 5514 5511 5508 5504 5503 5503 5504 5507 5508 5510 5515 5519 5524 5523 5525 5531 5545 5553 5568 5583 5593 5605 5613 5621 5628 5638 5644
5670 5663 5656 5649 5640 5631 5621 5610 5601 5592 5586 5579 5573 5568 5565 5560 5555 5551 5547 5543 5540 5536 5533 5530 5527 5523 5519 5516 5512 5508 5505 5502 5501 5501 5501 5503 5507 5508 5508 5506 5508 5518 5520 5533 5537 5555 5571 5584 5596 5605 5613 5620 5629 5636
5667 5661 5654 5647 5639 5631 5623 5613 5603 5595 5588 5582 5576 5572 5568 5564 5561 5555 5551 5547 5542 5540 5535 5531 5527 5522 5519 5515 5511 5507 5505 5504 5503 5502 5504 5505 5497 5492 5498 5509 5515 5521 5524 5530 5534 5546 5562 5576 5585 5595 5604 5612 5620 5628
5664 5657 5651 5645 5638 5630 5623 5615 5606 5596 5589 5582 5578 5574 5570 5567 5563 5559 5555 5551 5547 5542 5537 5532 5526 5523 5520 5515 5513 5510 5508 5508 5508 5508 5506 5506 5509 5508 5508 5509 5512 5515 5520 5525 5534 5541 5556 5568 5575 5587 5594 5605 5612 5621
5660 5655 5649 5642 5636 5629 5622 5615 5607 5599 5590 5584 5579 5576 5572 5567 5564 5561 5557 5554 5548 5541 5536 5533 5528 5524 5521 5518 5515 5513 5512 5511 5511 5511 5510 5508 5507 5507 5507 5507 5510 5513 5518 5522 5531 5533 5544 5557 5568 5577 5584 5595 5604 5613
5656 5652 5645 5639 5632 5626 5620 5614 5607 5599 5591 5586 5580 5575 5571 5568 5566 5561 5557 5555 5550 5545 5539 5535 5531 5527 5524 5521 5521 5520 5517 5515 5514 5514 5513 5510 5508 5503 5501 5501 5501 5500 5508 5516 5524 5530 5535 5544 5554 5567 5574 5585 5595 5605
5651 5647 5642 5635 5629 5623 5617 5612 5605 5598 5592 5585 5581 5575 5572 5568 5564 5560 5557 5555 5553 5549 5544 5539 5537 5532 5530 5529 5527 5524 5520 5518 5517 5516 5514 5512 5508 5503 5500 5498 5497 5503 5507 5511 5513 5520 5527 5537 5546 5555 5566 5576 5583 5593
5645 5641 5637 5631 5626 5620 5613 5608 5603 5598 5591 5585 5580 5575 5571 5566 5562 5559 5557 5555 5554 5551 5547 5544 5540 5537 5536 5533 5530 5528 5525 5521 5517 5516 5514 5513 5509 5504 5501 5498 5497 5495 5496 5499 5504 5510 5520 5528 5539 5547 5556 5565 5573 5581
5638 5633 5631 5625 5620 5616 5609 5604 5599 5594 5589 5583 5578 5574 5568 5564 5561 5558 5555 5553 5552 5550 5548 5546 5543 5539 5537 5534 5532 5529 5526 5522 5519 5516 5515 5513 5509 5505 5502 5499 5498 5496 5494 5491 5493 5498 5508 5519 5528 5537 5545 5553 5561 5566
5629 5628 5624 5620 5614 5610 5605 5599 5594 5590 5585 5581 5576 5571 5567 5562 5559 5555 5553 5551 5548 5547 5546 5545 5543 5541 5538 5535 5532 5529 5526 5523 5520 5518 5515 5512 5508 5503 5498 5495 5493 5492 5492 5490 5488 5489 5493 5498 5512 5524 5535 5542 5548 5556
5621 5621 5618 5615 5609 5603 5599 5593 5590 5585 5580 5577 5572 5568 5565 5561 5556 5553 5550 5547 5546 5544 5542 5542 5541 5539 5537 5535 5531 5529 5526 5523 5520 5517 5515 5513 5509 5504 5498 5494 5488 5485 5482 5484 5484 5484 5486 5488 5490 5502 5518 5529 5538 5547
5614 5612 5611 5608 5603 5599 5593 5587 5582 5579 5574 5571 5567 5563 5559 5556 5554 5550 5547 5544 5542 5540 5538 5537 5536 5535 5533 5532 5529 5527 5524 5522 5519 5516 5513 5511 5507 5503 5499 5493 5488 5482 5480 5477 5478 5480 5480 5479 5479 5486 5501 5514 5524 5532
5605 5604 5602 5600 5596 5592 5587 5583 5577 5575 5569 5565 5561 5558 5555 5552 5549 5546 5543 5540 5537 5535 5533 5531 5530 5530 5529 5527 5524 5522 5521 5518 5516 5514 5512 5509 5505 5502 5498 5494 5489 5484 5480 5477 5476 5475 5473 5471 5473 5475 5483 5496 5507 5516
5596 5594 5592 5592 5589 5586 5582 5576 5570 5568 5564 5560 5554 5551 5547 5544 5542 5540 5537 5535 5533 5530 5527 5525 5525 5524 5523 5520 5519 5517 5515 5514 5511 5510 5509 5506 5504 5501 5498 5493 5490 5484 5480 5478 5477 5476 5476 5473 5470 5469 5469 5477 5488 5499
5585 5585 5581 5581 5579 5577 5574 5568 5563 5559 5557 5555 5549 5545 5542 5538 5534 5532 5531 5529 5526 5524 5522 5519 5518 5517 5516 5514 5512 5510 5508 5507 5505 5503 5502 5500 5500 5498 5497 5493 5489 5487 5482 5478 5477 5476 5476 5475 5472 5468 5467 5470 5475 5488
5575 5575 5573 5569 5569 5568 5567 5559 5554 5549 5547 5545 5541 5538 5536 5532 5528 5523 5522 5523 5520 5516 5515 5513 5510 5510 5509 5508 5505 5504 5501 5499 5498 5496 5496 5493 5492 5492 5491 5490 5489 5485 5483 5480 5476 5475 5475 5475 5473 5472 5471 5469 5472 5481
5563 5563 5564 5561 5559 5557 5556 5549 5545 5541 5537 5537 5532 5529 5527 5523 5520 5516 5515 5514 5512 5510 5508 5506 5504 5503 5502 5500 5498 5497 5495 5493 5492 5491 5491 5489 5488 5486 5484 5484 5485 5483 5481 5479 5478 5475 5473 5473 5472 5471 5472 5475 5478 5485
5549 5550 5551 5550 5550 5546 5543 5540 5535 5531 5529 5526 5522 5520 5516 5512 5509 5506 5506 5503 5501 5501 5500 5498 5496 5495 5496 5493 5492 5490 5489 5487 5485 5484 5486 5485 5483 5479 5479 5479 5479 5479 5478 5476 5475 5475 5474 5472 5472 5471 5471 5472 5475 5480
5537 5540 5540 5540 5536 5531 5529 5528 5524 5520 5518 5515 5511 5507 5503 5499 5497 5496 5497 5493 5488 5489 5491 5489 5487 5486 5487 5485 5484 5483 5481 5480 5478 5477 5479 5480 5479 5477 5473 5472 5473 5474 5473 5472 5472 5471 5470 5472 5473 5472 5470 5471 5473 5476
5526 5527 5529 5528 5523 5520 5516 5515 5513 5510 5507 5503 5500 5497 5493 5490 5488 5486 5485 5480 5479 5479 5479 5479 5479 5477 5477 5476 5476 5473 5471 5470 5470 5469 5469 5471 5471 5470 5467 5465 5465 5468 5468 5466 5467 5468 5467 5467 5467 5468 5469 5468 5468 5471
5518 5517 5516 5513 5508 5506 5505 5503 5500 5496 5493 5488 5488 5484 5482 5479 5477 5475 5471 5471 5469 5468 5467 5466 5468 5468 5466 5465 5465 5464 5463 5460 5460 5461 5460 5459 5461 5460 5460 5459 5457 5458 5460 5460 5459 5460 5462 5462 5462 5462 5463 5464 5465 5465
5507 5507 5504 5499 5496 5494 5492 5490 5487 5483 5481 5477 5473 5470 5468 5467 5465 5461 5461 5460 5460 5459 5457 5457 5456 5457 5456 5456 5456 5454 5452 5451 5450 5450 5450 5449 5448 5450 5451 5450 5450 5450 5451 5452 5452 5451 5453 5454 5454 5455 5456 5457 5458 5461
5494 5491 5488 5487 5484 5482 5482 5476 5474 5472 5468 5466 5464 5461 5458 5455 5453 5452 5450 5448 5448 5448 5447 5446 5445 5446 5447 5446 5445 5443 5440 5439 5439 5437 5437 5437 5437 5439 5439 5440 5443 5444 5444 5442 5442 5443 5444 5446 5447 5448 5449 5450 5451 5452
5480 5475 5473 5474 5474 5471 5468 5464 5462 5458 5456 5454 5451 5448 5445 5444 5442 5440 5439 5437 5437 5436 5436 5434 5436 5436 5437 5436 5433 5431 5431 5429 5428 5428 5426 5426 5426 5427 5427 5429 5433 5434 5435 5434 5434 5436 5436 5437 5438 5439 5440 5442 5443 5445
5461 5461 5461 5460 5460 5456 5453 5451 5448 5444 5442 5439 5437 5436 5434 5432 5429 5425 5428 5428 5428 5428 5425 5424 5425 5425 5424 5423 5422 5421 5421 5419 5418 5418 5417 5415 5415 5416 5417 5418 5421 5421 5423 5424 5425 5425 5427 5428 5429 5431 5432 5433 5434 5436
5446 5447 5447 5447 5446 5441 5439 5436 5433 5431 5429 5427 5426 5423 5422 5421 5419 5417 5419 5416 5417 5415 5414 5413 5414 5414 5412 5411 5409 5408 5408 5408 5407 5406 5406 5405 5405 5406 5407 5408 5408 5408 5409 5411 5412 5414 5416 5418 5419 5421 5422 5423 5424 5426
5435 5434 5433 5432 5430 5427 5423 5421 5419 5418 5416 5414 5413 5411 5411 5408 5406 5407 5406 5405 5406 5406 5404 5403 5401 5400 5400 5400 5399 5398 5397 5394 5393 5393 5394 5394 5393 5393 5394 5395 5396 5396 5396 5397 5399 5400 5402 5404 5406 5408 5410 5411 5412 5414